Location: Cartignies
(50.0929°N, 3.8447°E)
Time: 15:06:58
(UTC+00:00)

Cosmos 1328 Rocket - Pass Details

Date: 12 January 2026
Orbit: 595 x 619 km, 82.5° (Epoch: 16 February)

Event Time Altitude Azimuth Distance (km) Brightness Sun altitude
Rises 16:58:43 0° 166° (SSE) 2,858 7.1 -8.2°
Reaches altitude 10° 17:01:01 10° 159° (SSE) 1,963 6.2 -8.5°
Maximum altitude 17:05:02 37° 91° (E) 957 4.1 -9.1°
Drops below altitude 10° 17:09:05 10° 25° (NNE) 1,990 5.7 -9.7°
Enters shadow 17:11:12 - 17° (NNE) 2,812 6.6 -10.0°
